Laramie, WY

4:11 AM MDT on July 25, 2017 (GMT -0600)
Laramie Regional

Weather History for KLAR - October, 2011

Change the Weather History Date:

Friday, October 21, 2011

  Actual Average Record
Temperature  
Mean Temperature 45 °F 40 °F  
Max Temperature 60 °F 54 °F 74 °F (2003)
Min Temperature 30 °F 27 °F 9 °F (2007)
Degree Days  
Heating Degree Days 20 25  
Month to date heating degree days 375 448  
Since 1 July heating degree days 728 973  
Cooling Degree Days 0 0  
Month to date cooling degree days 0 0  
Year to date cooling degree days 126 67  
Moisture  
Dew Point 24 °F    
Average Humidity 43    
Maximum Humidity 64    
Minimum Humidity 21    
Precipitation  
Precipitation T in 0.03 in 0.74 in (1972)
Month to date precipitation 0.36 0.58  
Year to date precipitation 9.00 9.84  
Sea Level Pressure  
Sea Level Pressure 30.07 in    
Wind  
Wind Speed 9 mph (West)    
Max Wind Speed 23 mph    
Max Gust Speed 29 mph    
Visibility 10 miles    
Events      
T = Trace of Precipitation, MM = Missing Value Source: NWS Daily Summary

Daily Weather History Graph

Daily Weather History Graph

Search for Another Location

Airport or City:

Trip Planner

Search our weather history database for the weather conditions in past years. The results will help you decide how hot, cold, wet, or windy it might be!

Date:

Astronomy

Oct. 21, 2011 Rise Set
Actual Time 7:20 AM MDT 6:13 PM MDT
Civil Twilight 6:52 AM MDT 6:41 PM MDT
Nautical Twilight 6:20 AM MDT 7:13 PM MDT
Astronomical Twilight 5:48 AM MDT 7:45 PM MDT
Moon 1:10 AM MDT (10/21) 3:02 PM MDT (10/21)
Length of Visible Light 11h 48m
Length of Day
10h 52m
Waning Crescent, 33% of the Moon is Illuminated
Oct 21
Waning Crescent
Oct 26
New
Nov 2
First Quarter
Nov 10
Full
Nov 18
Last Quarter

Hourly Weather History & Observations

Time (MDT) Temp. Windchill Dew Point Humidity Pressure Visibility Wind Dir Wind Speed Gust Speed Precip Events Conditions
12:53 AM 36.0 °F 33.3 °F 23.0 °F 59% 30.03 in 10.0 mi SSE 3.5 mph - N/A   Clear
1:53 AM 35.1 °F 29.3 °F 23.0 °F 61% 30.02 in 10.0 mi WSW 6.9 mph - N/A   Clear
2:53 AM 44.1 °F 38.1 °F 23.0 °F 43% 29.99 in 10.0 mi West 11.5 mph - N/A   Clear
3:53 AM 39.9 °F 35.8 °F 23.0 °F 51% 30.01 in 10.0 mi WSW 5.8 mph - N/A   Clear
4:53 AM 43.0 °F 39.5 °F 24.1 °F 47% 30.02 in 10.0 mi WNW 5.8 mph - N/A   Clear
5:53 AM 39.0 °F 36.8 °F 23.0 °F 53% 30.07 in 10.0 mi Variable 3.5 mph - N/A   Clear
6:53 AM 32.0 °F 24.2 °F 21.9 °F 66% 30.13 in 10.0 mi SE 9.2 mph - N/A   Clear
7:53 AM 36.0 °F 29.0 °F 24.1 °F 62% 30.14 in 10.0 mi SW 9.2 mph - N/A   Clear
8:53 AM 45.0 °F 42.6 °F 27.0 °F 49% 30.12 in 10.0 mi WSW 4.6 mph - N/A   Clear
9:53 AM 51.1 °F - 27.0 °F 39% 30.08 in 10.0 mi SSW 6.9 mph - N/A   Clear
10:53 AM 54.0 °F - 26.1 °F 34% 30.07 in 10.0 mi WSW 17.3 mph - N/A   Clear
11:53 AM 57.0 °F - 23.0 °F 27% 30.04 in 10.0 mi WSW 19.6 mph 25.3 mph N/A   Clear
12:53 PM 57.9 °F - 25.0 °F 28% 30.05 in 10.0 mi NNW 3.5 mph 23.0 mph N/A   Clear
1:53 PM 57.9 °F - 23.0 °F 26% 30.05 in 10.0 mi WNW 6.9 mph - N/A   Clear
2:53 PM 59.0 °F - 21.0 °F 23% 29.99 in 10.0 mi NNW 11.5 mph - N/A   Clear
3:53 PM 59.0 °F - 19.9 °F 22% 30.02 in 10.0 mi West 17.3 mph 24.2 mph N/A   Clear
4:53 PM 57.0 °F - 21.9 °F 26% 30.02 in 10.0 mi WNW 18.4 mph - N/A   Clear
5:53 PM 52.0 °F - 23.0 °F 32% 30.07 in 10.0 mi WNW 8.1 mph - N/A   Scattered Clouds
6:53 PM 48.9 °F - 24.1 °F 38% 30.14 in 10.0 mi WNW 9.2 mph - N/A   Overcast
7:53 PM 46.9 °F - 25.0 °F 42% 30.13 in 10.0 mi West 4.6 mph - N/A   Overcast
8:53 PM 46.9 °F - 25.0 °F 42% 30.09 in 10.0 mi SW 8.1 mph - N/A   Mostly Cloudy
9:53 PM 44.6 °F 41.4 °F 26.6 °F 49% 30.24 in 10.0 mi WSW 5.8 mph - N/A   Overcast
10:53 PM 44.1 °F 39.0 °F 26.1 °F 49% 30.04 in 10.0 mi SW 9.2 mph - N/A   Overcast
11:53 PM 44.1 °F 41.5 °F 27.0 °F 51% 30.02 in 10.0 mi NNW 4.6 mph - N/A   Mostly Cloudy